Cloud_Cover
57 100 10 0 13 60 6 3 0 0 0 0 0 0 0 0 0 0 0 0 0 5 66 84 16 5 6 100 100 62 7 5 5 39 75 96 98 100 100 100 100 100 100 100
28 98 31 4 32 38 100 20 0 0 2 5 4 0 0 0 0 0 0 0 2 9 5 81 39 1 5 98 76 39 52 29 14 72 71 74 80 90 100 100 100 100 100 100
92 71 12 5 1 39 100 30 2 4 3 44 5 5 4 0 0 0 0 0 0 0 1 23 29 2 5 7 27 6 5 7 42 55 30 54 100 100 100 100 100 100 100 100
100 100 85 30 1 9 100 96 5 5 5 100 14 4 5 3 0 0 0 0 0 0 0 0 5 5 4 99 4 5 5 50 54 68 97 100 100 100 100 100 100 100 100 100
100 100 20 68 6 2 89 100 85 37 83 100 79 72 5 9 2 0 0 0 0 0 0 0 0 4 5 0 0 0 0 18 7 6 5 88 100 100 100 100 100 100 100 100
98 100 100 98 57 9 89 100 100 5 96 100 100 97 5 40 5 0 0 0 1 6 0 0 0 0 4 16 11 29 29 21 4 1 1 100 100 100 100 100 100 100 100 100
68 99 100 100 89 13 95 100 100 93 70 85 100 97 5 80 10 5 0 0 0 25 22 0 13 13 10 40 24 2 0 0 2 1 14 50 100 100 100 100 100 100 100 100
100 10 5 5 5 22 89 100 100 100 20 5 84 98 22 16 38 5 4 0 0 25 14 2 1 21 11 23 2 0 0 2 5 0 72 68 100 100 100 100 100 100 100 100
79 78 31 5 3 43 62 100 100 100 100 100 71 100 100 100 88 18 4 0 0 4 16 7 38 5 0 20 0 1 26 45 75 64 100 100 84 100 100 100 100 100 100 100
79 93 16 5 5 12 75 100 100 100 100 98 61 95 100 100 100 100 44 5 0 0 3 6 16 14 9 2 1 0 19 65 100 100 100 100 99 97 100 100 100 100 100 100
15 62 63 43 57 15 100 71 100 100 100 100 98 93 100 100 100 77 54 39 5 0 0 0 0 0 12 12 7 21 60 97 100 100 100 89 99 100 100 100 100 100 100 100
76 69 88 92 27 41 61 100 100 100 100 100 100 100 100 100 100 100 100 66 47 5 0 0 0 0 31 22 38 94 100 100 100 100 100 100 100 100 100 100 100 100 100 100
100 98 44 17 10 85 100 78 85 100 100 100 100 100 100 100 100 100 99 98 17 22 3 0 0 3 30 20 99 99 100 100 100 100 100 100 100 100 100 100 100 100 100 100
100 100 92 63 46 82 78 100 100 94 100 100 100 100 100 100 100 97 35 5 5 22 5 1 48 72 60 79 100 100 100 100 100 100 100 100 89 90 100 100 100 100 100 100
100 100 100 96 18 5 6 28 100 100 95 84 98 100 100 100 100 100 98 53 36 8 28 41 98 100 100 100 100 100 100 100 100 100 100 100 100 100 100 100 100 100 100 100
100 100 100 100 100 49 5 5 5 8 94 97 32 100 100 100 100 100 100 100 97 100 100 100 100 100 100 100 100 100 100 100 100 100 100 100 100 100 100 100 100 100 100 100
100 97 96 100 100 38 12 5 40 24 6 5 5 29 30 97 100 100 100 100 100 100 100 100 100 100 100 100 100 100 100 100 100 100 100 100 100 100 100 100 100 100 100 100
100 89 96 100 100 100 100 97 100 100 87 97 36 48 99 93 100 100 100 100 100 100 100 100 100 100 100 100 100 100 100 100 100 100 100 100 100 100 100 100 100 100 100 100
97 100 100 100 100 100 85 100 100 100 100 100 100 100 100 96 100 100 100 100 100 100 100 100 100 100 100 100 100 100 100 100 100 100 100 100 100 100 100 100 100 100 100 100
100 100 100 100 100 100 100 100 85 100 100 100 100 100 100 100 100 100 100 100 100 100 100 100 100 100 100 100 100 100 100 100 100 100 100 100 100 100 100 100 97 95 100 99
100 100 100 100 49 19 75 87 75 100 100 100 99 100 100 100 100 100 100 98 100 100 100 100 100 100 100 100 100 100 100 100 100 100 100 100 100 100 100 100 100 87 87 93
100 100 100 100 100 67 10 48 100 91 100 100 100 100 100 100 100 90 100 100 100 100 100 100 100 100 100 100 100 100 100 100 100 100 100 100 100 100 100 67 5 11 16 5
100 100 100 95 100 100 100 88 100 100 100 100 100 100 100 100 100 100 100 100 100 90 82 100 100 100 100 100 100 100 100 100 100 100 100 100 100 100 100 63 9 5 5 5
100 100 100 100 100 100 100 100 100 100 100 100 100 100 100 100 100 100 100 100 100 100 100 100 100 100 100 100 100 100 100 100 100 100 100 60 20 22 20 5 5 5 5 5
100 100 92 100 100 100 100 100 100 100 100 100 96 88 100 62 100 100 100 100 100 97 100 100 100 100 100 100 100 100 100 100 100 100 99 68 5 50 71 68 30 39 75 71
100 100 100 99 100 100 100 100 100 100 100 100 100 100 100 92 67 99 80 87 93 97 100 99 93 100 100 100 100 100 98 100 99 86 100 66 100 100 100 100 74 74 61 11